Weather History for Whitefield, NH

Change the Weather History Date:

Sunday, May 26, 2013

  Actual Average Record
Temperature  
Mean Temperature 40 °F -  
Max Temperature 48 °F 64 °F 82 °F (2011)
Min Temperature 33 °F 37 °F 30 °F (1997)
Degree Days  
Heating Degree Days 26    
Moisture  
Dew Point 34 °F    
Average Humidity 83    
Maximum Humidity 93    
Minimum Humidity 71    
Precipitation  
Precipitation 0.27 in - - ()
Sea Level Pressure  
Sea Level Pressure 29.87 in    
Wind  
Wind Speed 3 mph (WSW)    
Max Wind Speed 13 mph    
Max Gust Speed 29 mph    
Visibility 7 miles    
Events Rain , Snow    
Averages and records for this station are not official NWS values.
T = Trace of Precipitation, MM = Missing Value Source: NWS Daily Summary

Daily Weather History Graph

Daily Weather History Graph

Search for Another Location

Airport:

Trip Planner

Search our weather history database for the weather conditions in past years. The results will help you decide how hot, cold, wet, or windy it might be!

Date:

Astronomy

May. 26, 2013 Rise Set
Actual Time 5:08 AM EDT 8:18 PM EDT
Civil Twilight 4:33 AM EDT 8:53 PM EDT
Nautical Twilight 3:48 AM EDT 9:38 PM EDT
Astronomical Twilight 2:53 AM EDT 10:34 PM EDT
Moon 10:01 PM EDT (5/26) 6:35 AM EDT (5/26)
Length of Visible Light 16h 19m
Length of Day
15h 09m
Waning Gibbous, 97% of the Moon is Illuminated
May 26
Waning Gibbous
May 31
Last Quarter
Jun 8
New
Jun 16
First Quarter
Jun 23
Full

Hourly Weather History & Observations

Time (EDT) Temp. Windchill Dew Point Humidity Pressure Visibility Wind Dir Wind Speed Gust Speed Precip Events Conditions
12:52 AM 34.0 °F - 30.9 °F 89% 29.81 in 3.0 mi Calm Calm - 0.03 in Snow Light Snow
1:01 AM 33.8 °F 30.8 °F 30.2 °F 87% 29.78 in 2.5 mi SSW 3.5 mph - 0.00 in Snow Light Snow
1:11 AM 33.8 °F - 30.2 °F 87% 29.78 in 1.8 mi Calm Calm - 0.02 in Snow Light Snow
1:19 AM 33.8 °F - 30.2 °F 87% 29.78 in 1.8 mi Calm Calm - 0.03 in Snow Light Snow
1:43 AM 33.8 °F - 30.2 °F 87% 29.77 in 2.5 mi Calm Calm - 0.05 in Snow Light Snow
1:52 AM 34.0 °F - 30.9 °F 89% 29.81 in 1.8 mi Calm Calm - 0.06 in Snow Light Snow
2:26 AM 33.8 °F 30.8 °F 30.2 °F 87% 29.76 in 3.0 mi South 3.5 mph - 0.04 in Snow Light Snow
2:52 AM 34.0 °F - 30.9 °F 89% 29.79 in 4.0 mi Calm Calm - 0.05 in Snow Light Snow
3:12 AM 33.8 °F - 30.2 °F 87% 29.76 in 2.5 mi Calm Calm - 0.01 in Snow Light Snow
3:20 AM 33.8 °F - 30.2 °F 87% 29.76 in 4.0 mi Calm Calm - 0.01 in Snow Light Snow
3:52 AM 34.0 °F - 30.9 °F 89% 29.79 in 2.5 mi Calm Calm - 0.03 in Snow Light Snow
4:05 AM 33.8 °F - 30.2 °F 87% 29.76 in 2.0 mi Calm Calm - 0.00 in Snow Light Snow
4:17 AM 33.8 °F - 30.2 °F 87% 29.76 in 3.0 mi Calm Calm - 0.01 in Snow Light Snow
4:28 AM 33.8 °F - 30.2 °F 87% 29.76 in 2.5 mi Calm Calm - 0.01 in Snow Light Snow
4:41 AM 33.8 °F 30.8 °F 30.2 °F 87% 29.77 in 2.0 mi South 3.5 mph - 0.02 in Snow Light Snow
4:52 AM 34.0 °F - 30.9 °F 89% 29.80 in 2.5 mi Calm Calm - 0.03 in Snow Light Snow
5:05 AM 33.8 °F - 30.2 °F 87% 29.77 in 3.0 mi Calm Calm - 0.00 in Snow Light Snow
5:39 AM 33.8 °F - 32.0 °F 93% 29.78 in 2.0 mi Calm Calm - 0.01 in   Overcast
5:52 AM 34.0 °F - 32.0 °F 92% 29.81 in 2.5 mi Calm Calm - 0.01 in   Overcast
6:15 AM 33.8 °F - 32.0 °F 93% 29.79 in 2.5 mi Calm Calm - N/A   Overcast
6:26 AM 33.8 °F - 32.0 °F 93% 29.79 in 3.0 mi Calm Calm - 0.00 in Snow Light Snow
6:34 AM 33.8 °F - 32.0 °F 93% 29.79 in 4.0 mi Calm Calm - 0.00 in Snow Light Snow
6:52 AM 34.0 °F 31.0 °F 32.0 °F 92% 29.83 in 10.0 mi SW 3.5 mph - 0.00 in   Overcast
7:10 AM 33.8 °F 30.8 °F 32.0 °F 93% 29.80 in 2.5 mi SSW 3.5 mph - 0.01 in Snow Light Snow
7:18 AM 33.8 °F 30.8 °F 32.0 °F 93% 29.80 in 4.0 mi SSW 3.5 mph - 0.01 in Rain Light Rain
7:25 AM 33.8 °F 30.8 °F 32.0 °F 93% 29.80 in 5.0 mi South 3.5 mph - 0.01 in Rain Light Rain
7:49 AM 35.6 °F 32.8 °F 32.0 °F 87% 29.80 in 9.0 mi SSW 3.5 mph - 0.01 in Rain Light Rain
7:52 AM 35.1 °F 32.2 °F 32.0 °F 89% 29.84 in 10.0 mi SSW 3.5 mph - 0.01 in Rain Light Rain
8:39 AM 35.6 °F 32.8 °F 33.8 °F 93% 29.82 in 7.0 mi South 3.5 mph - 0.00 in   Overcast
8:52 AM 36.0 °F 32.1 °F 34.0 °F 93% 29.86 in 10.0 mi South 4.6 mph - 0.00 in   Overcast
9:42 AM 39.2 °F 37.0 °F 35.6 °F 87% 29.83 in 10.0 mi West 3.5 mph - 0.01 in   Overcast
9:52 AM 39.9 °F 35.8 °F 35.1 °F 83% 29.86 in 10.0 mi West 5.8 mph - 0.01 in   Overcast
10:52 AM 43.0 °F 37.7 °F 36.0 °F 76% 29.86 in 10.0 mi West 9.2 mph - 0.00 in   Overcast
11:52 AM 45.0 °F 42.6 °F 37.9 °F 76% 29.87 in 10.0 mi WNW 4.6 mph - 0.00 in Rain Light Rain
12:52 PM 44.1 °F 38.6 °F 37.9 °F 79% 29.89 in 6.0 mi WNW 10.4 mph - 0.02 in Rain Light Rain
1:52 PM 45.0 °F 40.1 °F 39.0 °F 80% 29.91 in 10.0 mi WNW 9.2 mph - 0.01 in Rain Light Rain
1:59 PM 46.4 °F 42.9 °F 39.2 °F 76% 29.88 in 9.0 mi WNW 6.9 mph - 0.00 in Rain Light Rain
2:11 PM 46.4 °F 42.4 °F 39.2 °F 76% 29.88 in 9.0 mi West 8.1 mph - 0.00 in Rain Light Rain
2:21 PM 46.4 °F 41.9 °F 39.2 °F 76% 29.88 in 10.0 mi WNW 9.2 mph 17.3 mph 0.00 in Rain Light Rain
2:52 PM 46.9 °F - 39.9 °F 77% 29.91 in 10.0 mi West 8.1 mph - 0.01 in Rain Light Rain
3:05 PM 46.4 °F 41.9 °F 39.2 °F 76% 29.89 in 10.0 mi WNW 9.2 mph 20.7 mph 0.00 in Rain Light Rain
3:14 PM 46.4 °F 43.5 °F 39.2 °F 76% 29.89 in 10.0 mi West 5.8 mph - 0.00 in   Overcast
3:52 PM 46.9 °F - 39.0 °F 74% 29.94 in 10.0 mi NW 8.1 mph 18.4 mph 0.00 in Rain Light Rain
4:52 PM 46.9 °F - 39.0 °F 74% 29.96 in 10.0 mi WNW 5.8 mph - 0.00 in   Overcast
5:50 PM 46.4 °F 40.7 °F 37.4 °F 71% 29.95 in 10.0 mi West 12.7 mph 19.6 mph 0.00 in   Overcast
5:52 PM 46.9 °F - 37.9 °F 71% 29.98 in 10.0 mi WNW 11.5 mph 19.6 mph 0.00 in   Overcast
6:52 PM 46.0 °F 40.2 °F 37.0 °F 71% 30.02 in 10.0 mi NW 12.7 mph 28.8 mph 0.00 in   Overcast
7:04 PM 46.4 °F 42.9 °F 37.4 °F 71% 29.99 in 10.0 mi WNW 6.9 mph - N/A   Overcast
7:14 PM 46.4 °F 42.9 °F 37.4 °F 71% 30.00 in 10.0 mi West 6.9 mph - N/A   Overcast
7:52 PM 45.0 °F 40.1 °F 37.0 °F 74% 30.04 in 10.0 mi West 9.2 mph 17.3 mph N/A   Overcast
8:25 PM 44.6 °F 41.4 °F 37.4 °F 76% 30.03 in 10.0 mi West 5.8 mph - N/A   Overcast
8:43 PM 44.6 °F 43.1 °F 35.6 °F 71% 30.03 in 10.0 mi West 3.5 mph - N/A   Overcast
8:52 PM 44.1 °F 40.8 °F 36.0 °F 73% 30.06 in 10.0 mi West 5.8 mph - N/A   Overcast
9:52 PM 44.1 °F 42.5 °F 35.1 °F 71% 30.07 in 10.0 mi NW 3.5 mph - N/A   Overcast
10:52 PM 39.0 °F 36.8 °F 35.1 °F 86% 30.07 in 10.0 mi South 3.5 mph - N/A   Mostly Cloudy
11:52 PM 37.0 °F 33.3 °F 33.1 °F 86% 30.07 in 10.0 mi South 4.6 mph - N/A   Clear